Temp
12 11 11 11 12 13 13 13 13 12 11 12 11 11 10 10 10 10 10 10 11 11 10 11 11 11 10 11 11 11 11 10 9 9 9 9 9 8 8 8 8 8 8 8 9 9 9 9 9 9 9 10
11 11 10 11 12 12 13 13 13 12 11 10 10 10 10 10 10 10 10 10 10 10 10 10 11 10 10 10 10 11 11 11 10 9 8 8 8 8 8 8 8 8 8 8 8 8 9 9 9 9 9 9
11 10 10 10 10 11 13 13 12 11 10 9 9 10 10 10 10 10 11 10 10 10 10 10 10 10 10 10 10 10 10 10 10 9 8 8 8 8 8 8 7 8 8 8 8 8 8 8 9 8 8 9
10 10 10 10 10 10 11 12 12 12 11 10 10 10 10 10 11 10 10 10 9 10 10 10 10 9 9 9 9 9 9 9 9 9 8 8 8 8 8 8 7 7 7 8 8 8 8 8 8 8 8 9
10 10 9 10 10 10 10 11 12 12 12 12 11 11 11 10 10 11 10 10 9 9 9 9 9 8 8 9 9 8 8 8 8 8 8 8 8 8 8 7 7 7 7 7 7 8 8 8 8 8 8 9
9 9 10 10 9 9 9 10 11 11 11 11 11 11 12 11 11 10 11 10 9 9 9 8 8 8 8 8 8 8 8 8 8 8 8 8 8 7 7 7 7 7 7 7 7 7 8 8 8 8 9 9
9 9 9 10 10 9 9 9 9 10 10 10 10 10 11 11 10 10 10 9 9 9 9 8 7 7 7 7 8 8 7 7 7 7 7 7 7 7 7 6 6 7 7 7 7 7 7 8 8 8 9 9
9 9 9 9 9 9 9 8 9 9 10 10 9 9 10 9 9 9 9 9 9 9 9 8 7 7 7 7 7 7 7 7 7 7 7 7 7 7 7 6 6 6 7 7 7 7 7 7 8 8 9 9
9 8 8 9 9 9 9 8 8 8 9 9 9 9 9 9 9 9 9 9 9 9 9 8 8 7 7 7 6 7 7 7 7 7 7 7 6 6 6 6 5 6 6 7 7 7 7 7 7 8 9 9
8 8 8 8 9 9 9 8 8 8 8 8 9 9 8 9 9 9 9 9 9 9 8 8 8 8 8 8 7 7 7 7 7 7 7 8 6 6 6 6 6 6 6 6 7 7 8 7 7 8 8 9
7 8 8 8 8 8 8 8 8 8 8 8 8 8 8 8 8 9 9 8 8 8 8 8 9 9 9 9 8 7 7 7 7 8 8 8 6 6 6 6 6 6 6 6 7 7 7 8 7 8 8 8
7 7 8 8 8 8 8 8 7 7 7 8 8 8 8 8 8 9 9 9 8 8 8 8 8 9 9 9 9 8 7 7 8 8 8 7 7 6 6 6 6 6 6 7 7 7 7 7 8 8 8 8
6 7 7 8 8 8 8 8 7 7 7 7 7 8 7 7 8 8 9 9 8 8 8 8 7 8 8 9 9 8 8 8 8 8 8 7 7 7 6 6 6 6 6 6 7 7 7 7 7 7 7 8
5 5 6 6 7 8 8 8 7 7 6 6 7 7 7 6 7 7 8 8 7 7 8 8 7 7 7 8 9 8 8 8 8 8 7 7 7 7 7 6 6 6 6 7 7 7 7 7 7 7 7 7
3 4 4 5 6 7 7 7 7 7 6 6 6 7 7 7 6 6 7 7 7 7 7 7 7 7 7 7 8 8 8 8 8 7 7 7 7 7 7 6 6 6 6 6 7 6 6 6 6 7 7 7
2 3 3 4 4 5 6 7 7 6 6 6 6 6 7 7 6 6 6 6 6 6 7 7 7 7 7 7 7 8 8 7 7 7 6 6 7 7 7 7 6 6 6 6 6 6 6 6 6 6 6 7
2 2 3 3 3 4 5 6 6 6 6 6 6 6 6 6 6 6 6 6 6 6 6 6 6 6 6 6 6 7 7 7 7 6 6 6 6 6 6 6 6 6 6 5 5 5 5 5 6 6 6 6
1 1 2 2 3 3 4 5 5 5 5 5 5 6 6 6 6 6 5 6 6 6 6 6 6 6 6 6 6 6 6 7 7 6 6 6 6 6 6 6 6 6 6 6 5 5 5 5 5 5 5 5
1 1 1 1 1 2 2 3 3 4 4 4 4 4 5 5 5 5 5 5 5 6 6 6 6 6 5 5 5 5 6 6 6 6 6 6 5 5 6 6 6 6 6 6 5 5 5 5 5 5 5 5
0 0 0 0 0 1 1 2 2 2 2 3 3 3 4 4 4 5 5 5 5 5 5 6 6 6 5 5 5 5 5 5 5 5 5 5 5 5 5 5 5 5 5 5 5 5 5 5 5 5 5 5
-0 -0 0 -0 -0 0 0 1 1 1 1 2 2 2 2 3 3 4 4 4 4 4 4 5 5 5 5 5 5 4 5 5 5 5 5 5 5 4 4 4 4 4 5 5 5 5 5 4 4 5 5 5
0 -0 0 0 -0 -0 0 0 0 0 1 1 1 1 2 1 2 2 3 3 4 4 4 4 4 4 4 4 4 4 4 4 4 4 4 4 4 4 4 4 4 4 4 4 4 4 4 4 4 4 4 4
0 0 1 0 0 0 0 0 0 0 1 1 1 1 1 1 1 1 1 2 3 3 3 4 4 4 3 4 4 4 4 4 4 4 4 4 4 4 3 3 3 3 3 3 3 3 3 4 4 4 4 4
0 1 1 1 1 1 0 -0 -0 -0 -0 -0 0 0 0 0 0 0 0 1 1 2 2 2 3 3 3 3 3 3 3 4 4 4 4 4 4 3 3 3 2 3 3 3 3 3 3 3 3 3 3 4
-0 0 0 0 0 0 -0 -0 -1 -1 -1 -1 -1 -1 -0 -0 -0 -0 -0 -0 -0 0 1 1 1 2 2 2 2 2 2 3 3 3 3 4 3 3 2 2 2 2 2 2 2 2 2 2 2 3 3 3
-1 -1 -1 -1 -1 -1 -1 -1 -1 -1 -1 -1 -1 -1 -1 -1 -1 -1 -1 -1 -1 -1 -0 0 0 1 1 1 1 1 1 2 2 2 3 3 3 3 2 2 1 1 1 1 1 1 1 2 2 2 2 3
-3 -3 -3 -3 -2 -2 -2 -1 -1 -2 -2 -2 -2 -2 -2 -1 -1 -1 -1 -1 -2 -1 -1 -1 -0 -0 0 0 0 0 0 1 1 1 2 2 2 2 2 2 1 1 1 1 1 1 0 1 1 1 2 2
-4 -4 -4 -3 -3 -3 -2 -2 -2 -2 -2 -2 -3 -3 -2 -2 -2 -2 -2 -2 -2 -2 -2 -1 -1 -1 -1 -0 -0 -0 -0 -0 -0 0 0 1 1 2 2 2 2 2 1 1 1 0 -0 -0 -1 0 2 2
-5 -5 -4 -4 -3 -3 -3 -3 -2 -2 -2 -2 -3 -3 -3 -3 -3 -3 -2 -2 -2 -2 -2 -2 -2 -2 -1 -1 -1 -1 -1 -1 -1 -1 -1 -1 -0 0 1 1 1 1 1 1 1 0 0 -1 -1 -0 1 1
-6 -6 -6 -5 -5 -4 -4 -4 -4 -3 -3 -3 -4 -4 -4 -4 -4 -4 -3 -3 -3 -3 -2 -2 -2 -2 -2 -2 -2 -1 -1 -1 -1 -1 -1 -2 -2 -1 -1 -0 0 0 1 1 1 0 0 0 -0 0 1 0
-6 -6 -6 -6 -6 -6 -6 -5 -5 -5 -5 -5 -5 -5 -5 -4 -4 -4 -4 -4 -4 -3 -3 -3 -3 -3 -3 -2 -2 -2 -2 -2 -2 -2 -2 -2 -2 -2 -2 -2 -1 -1 -0 -0 0 -0 -0 0 0 0 0 -0
Height
1501 1499 1498 1495 1494 1493 1490 1487 1487 1488 1489 1489 1489 1492 1496 1498 1500 1501 1503 1504 1505 1507 1508 1509 1510 1511 1513 1513 1513 1514 1514 1515 1516 1517 1518 1519 1520 1520 1519 1520 1522 1524 1526 1526 1526 1528 1529 1530 1531 1532 1532 1533
1500 1498 1496 1494 1492 1491 1487 1482 1481 1483 1485 1487 1486 1488 1494 1497 1500 1502 1503 1504 1505 1506 1507 1509 1509 1510 1512 1512 1511 1512 1512 1512 1513 1515 1516 1516 1517 1518 1519 1520 1522 1524 1525 1526 1527 1527 1528 1529 1530 1532 1532 1533
1499 1498 1496 1494 1492 1491 1487 1482 1481 1482 1484 1489 1490 1491 1494 1498 1501 1502 1503 1504 1504 1505 1506 1507 1508 1509 1511 1511 1511 1511 1511 1511 1511 1513 1514 1515 1516 1517 1518 1520 1521 1523 1524 1526 1526 1527 1528 1528 1530 1531 1532 1533
1500 1498 1497 1496 1494 1492 1491 1488 1487 1488 1489 1493 1496 1496 1497 1499 1501 1502 1503 1503 1504 1504 1505 1506 1507 1508 1510 1511 1511 1510 1511 1511 1511 1511 1513 1514 1516 1517 1518 1519 1520 1522 1523 1524 1526 1526 1527 1528 1529 1531 1532 1533
1500 1498 1497 1497 1496 1493 1493 1493 1491 1490 1491 1494 1495 1496 1497 1497 1499 1501 1503 1503 1503 1504 1504 1505 1507 1509 1510 1511 1511 1511 1511 1512 1512 1512 1512 1513 1515 1516 1517 1518 1519 1521 1522 1523 1525 1526 1527 1528 1529 1530 1532 1532
1500 1498 1497 1497 1497 1496 1494 1494 1494 1492 1491 1492 1493 1494 1495 1496 1497 1499 1501 1502 1502 1503 1503 1505 1507 1509 1510 1511 1511 1511 1511 1511 1512 1513 1513 1513 1514 1515 1517 1517 1518 1519 1521 1522 1524 1525 1526 1527 1529 1529 1530 1532
1500 1499 1498 1498 1497 1497 1495 1494 1493 1493 1492 1492 1493 1494 1494 1495 1497 1498 1499 1500 1501 1502 1503 1505 1507 1509 1510 1511 1511 1511 1511 1511 1512 1513 1514 1512 1512 1514 1515 1516 1517 1518 1520 1521 1523 1524 1526 1527 1528 1529 1530 1531
1500 1499 1499 1498 1497 1497 1497 1495 1493 1493 1493 1492 1493 1494 1494 1495 1496 1497 1497 1499 1501 1501 1502 1503 1506 1508 1509 1510 1511 1510 1510 1510 1512 1513 1513 1511 1511 1513 1514 1515 1517 1518 1519 1521 1522 1524 1525 1526 1527 1528 1529 1530
1500 1499 1498 1498 1497 1496 1496 1497 1496 1495 1494 1492 1493 1494 1494 1495 1495 1496 1497 1498 1499 1500 1500 1502 1504 1506 1507 1508 1510 1510 1509 1509 1510 1511 1511 1510 1510 1512 1512 1514 1516 1518 1520 1521 1522 1523 1524 1525 1527 1528 1528 1530
1499 1499 1498 1497 1497 1496 1495 1496 1496 1496 1494 1492 1492 1492 1493 1493 1494 1495 1496 1496 1496 1498 1499 1500 1502 1504 1506 1507 1508 1508 1508 1508 1508 1508 1509 1510 1511 1511 1511 1513 1515 1517 1520 1521 1521 1522 1523 1524 1526 1527 1528 1529
1498 1497 1497 1497 1496 1495 1495 1494 1494 1495 1494 1493 1491 1490 1490 1491 1492 1494 1494 1494 1495 1497 1498 1499 1500 1502 1504 1505 1506 1506 1507 1507 1507 1507 1508 1510 1511 1510 1511 1512 1514 1516 1518 1519 1521 1522 1522 1524 1525 1527 1528 1529
1497 1496 1496 1496 1495 1495 1494 1494 1493 1493 1492 1492 1492 1490 1490 1490 1492 1493 1493 1493 1494 1495 1496 1498 1499 1500 1501 1503 1504 1504 1505 1506 1506 1507 1508 1509 1510 1510 1511 1512 1513 1515 1516 1518 1519 1521 1522 1523 1524 1526 1528 1529
1496 1495 1494 1494 1494 1493 1493 1493 1492 1491 1491 1491 1491 1491 1490 1491 1492 1492 1492 1493 1493 1493 1494 1496 1497 1498 1499 1500 1502 1502 1504 1505 1506 1507 1508 1509 1509 1510 1510 1511 1512 1514 1515 1516 1518 1519 1521 1522 1524 1525 1527 1528
1495 1494 1493 1492 1492 1492 1492 1491 1491 1490 1489 1489 1490 1490 1490 1491 1492 1491 1491 1492 1493 1494 1493 1494 1495 1496 1497 1498 1500 1501 1502 1503 1505 1506 1507 1508 1508 1509 1510 1510 1512 1513 1514 1515 1516 1518 1519 1521 1523 1524 1525 1527
1496 1494 1493 1492 1491 1491 1490 1489 1489 1488 1487 1487 1488 1489 1490 1490 1490 1491 1490 1491 1493 1494 1493 1493 1494 1494 1496 1497 1498 1499 1500 1502 1503 1504 1505 1506 1507 1508 1509 1510 1511 1512 1513 1514 1515 1517 1518 1519 1521 1522 1524 1525
1497 1495 1494 1492 1491 1490 1489 1488 1487 1487 1486 1485 1485 1486 1487 1488 1488 1489 1489 1490 1492 1492 1492 1492 1493 1494 1495 1495 1496 1497 1498 1500 1501 1503 1504 1505 1506 1506 1508 1510 1511 1512 1513 1514 1515 1516 1517 1518 1519 1520 1522 1523
1498 1497 1495 1493 1491 1490 1488 1487 1486 1486 1485 1484 1483 1483 1483 1484 1485 1487 1488 1489 1490 1491 1492 1492 1492 1493 1493 1494 1494 1495 1497 1498 1499 1501 1502 1503 1504 1505 1507 1509 1510 1512 1513 1514 1515 1516 1516 1517 1518 1519 1520 1521
1500 1498 1496 1494 1492 1491 1489 1487 1486 1485 1485 1483 1482 1481 1481 1482 1483 1484 1485 1486 1488 1489 1490 1490 1490 1491 1492 1492 1492 1494 1495 1496 1497 1498 1500 1502 1503 1504 1505 1507 1508 1510 1511 1512 1513 1514 1515 1516 1517 1517 1518 1519
1502 1500 1498 1496 1494 1492 1490 1488 1487 1485 1484 1483 1482 1480 1479 1479 1481 1482 1482 1483 1484 1486 1487 1487 1488 1489 1489 1490 1491 1492 1493 1494 1495 1496 1498 1500 1501 1503 1504 1505 1506 1507 1509 1510 1511 1512 1513 1514 1515 1516 1517 1518
1504 1502 1499 1497 1495 1494 1492 1490 1488 1487 1485 1484 1483 1481 1479 1478 1479 1479 1480 1480 1481 1482 1483 1485 1486 1486 1487 1488 1489 1490 1491 1492 1493 1494 1496 1497 1499 1501 1502 1503 1504 1505 1506 1507 1508 1509 1511 1512 1513 1514 1515 1516
1505 1504 1501 1499 1497 1495 1494 1492 1490 1488 1487 1485 1483 1481 1480 1479 1478 1478 1478 1478 1479 1480 1481 1482 1483 1484 1485 1486 1486 1487 1489 1489 1491 1492 1493 1495 1497 1498 1499 1500 1502 1503 1504 1505 1506 1507 1508 1509 1510 1511 1512 1513
1507 1505 1503 1501 1499 1497 1495 1493 1491 1489 1488 1485 1483 1482 1481 1481 1479 1478 1477 1477 1477 1478 1478 1479 1480 1481 1482 1483 1484 1485 1487 1488 1489 1490 1491 1493 1494 1495 1496 1497 1499 1500 1501 1502 1503 1504 1505 1507 1508 1508 1509 1510
1507 1505 1503 1501 1500 1498 1495 1494 1492 1489 1488 1486 1484 1483 1482 1481 1480 1479 1478 1477 1476 1476 1476 1477 1477 1478 1479 1481 1482 1483 1484 1486 1487 1488 1489 1490 1491 1493 1494 1495 1496 1497 1499 1500 1501 1502 1503 1504 1505 1506 1506 1507
1506 1504 1502 1501 1499 1497 1496 1495 1493 1491 1489 1487 1485 1484 1483 1482 1481 1480 1479 1478 1477 1476 1475 1475 1475 1476 1476 1478 1479 1480 1481 1483 1484 1485 1486 1487 1489 1491 1492 1493 1493 1495 1496 1497 1498 1499 1500 1501 1502 1503 1503 1504
1505 1503 1501 1500 1498 1496 1496 1496 1495 1493 1490 1488 1486 1485 1484 1483 1481 1480 1479 1479 1478 1477 1475 1475 1474 1474 1474 1474 1475 1477 1478 1480 1481 1482 1483 1484 1486 1487 1488 1489 1490 1492 1494 1494 1495 1496 1497 1498 1499 1499 1500 1500
1506 1504 1502 1501 1500 1498 1497 1496 1495 1493 1491 1489 1488 1486 1485 1483 1481 1480 1479 1479 1479 1477 1476 1475 1474 1474 1473 1472 1472 1473 1475 1477 1478 1479 1480 1481 1482 1483 1484 1485 1486 1488 1490 1491 1492 1493 1494 1495 1495 1496 1496 1496
1507 1506 1504 1502 1501 1499 1498 1496 1495 1494 1493 1491 1489 1487 1485 1484 1482 1481 1481 1480 1479 1477 1476 1475 1475 1474 1473 1471 1471 1471 1472 1473 1474 1475 1477 1478 1478 1480 1481 1482 1482 1483 1486 1487 1489 1491 1492 1492 1492 1492 1492 1492
1508 1507 1505 1503 1501 1500 1498 1497 1496 1495 1493 1492 1490 1488 1486 1485 1483 1483 1481 1480 1479 1478 1477 1476 1476 1475 1473 1471 1470 1470 1470 1471 1471 1472 1473 1474 1475 1477 1477 1478 1479 1480 1481 1483 1485 1488 1488 1489 1490 1488 1487 1489
1508 1506 1505 1502 1500 1498 1497 1495 1493 1492 1490 1489 1488 1487 1486 1485 1484 1483 1482 1480 1480 1479 1478 1477 1476 1475 1473 1471 1470 1469 1469 1470 1470 1469 1469 1470 1472 1473 1474 1475 1476 1477 1478 1478 1481 1483 1484 1486 1486 1484 1484 1486
1508 1506 1503 1501 1498 1496 1493 1492 1490 1489 1488 1487 1487 1486 1486 1485 1484 1483 1482 1480 1480 1479 1477 1476 1475 1474 1473 1471 1470 1469 1469 1469 1469 1468 1468 1468 1469 1470 1472 1472 1472 1473 1474 1475 1477 1478 1479 1481 1481 1481 1482 1484
1508 1505 1503 1501 1499 1497 1494 1492 1491 1490 1489 1488 1487 1486 1486 1486 1484 1483 1482 1480 1479 1477 1476 1475 1474 1473 1472 1471 1470 1469 1469 1469 1468 1467 1466 1466 1466 1467 1469 1470 1470 1470 1471 1472 1473 1474 1476 1477 1478 1479 1480 1481
Wind_Speed
17 19 22 24 24 24 26 28 27 26 27 31 32 27 28 25 23 22 17 13 8 9 12 12 12 12 13 14 15 18 18 18 19 17 18 20 20 20 23 22 20 20 20 20 21 21 22 21 19 15 15 16
16 17 20 23 23 24 26 22 24 25 26 32 33 31 27 23 21 15 9 8 10 12 14 14 14 14 16 18 20 20 19 19 20 18 19 21 22 23 24 21 19 20 21 20 20 21 21 21 22 19 18 18
16 16 19 22 23 24 26 19 8 16 24 27 26 26 21 16 12 9 11 13 12 12 12 12 13 15 17 19 21 23 23 20 20 20 19 20 21 22 22 21 19 20 21 21 21 21 19 20 22 20 18 17
15 14 17 19 19 20 21 13 2 8 14 14 13 12 9 6 7 11 12 11 11 11 11 11 12 17 18 18 20 22 24 22 19 20 20 19 17 19 20 20 20 21 22 22 21 20 19 19 20 19 16 15
13 11 12 13 13 16 20 14 5 9 12 13 12 10 10 10 10 13 13 11 11 12 11 10 13 17 18 18 19 19 20 19 17 17 18 17 15 17 19 18 19 23 23 21 21 20 19 19 19 17 14 13
12 11 8 7 9 11 13 14 12 13 17 18 17 15 16 18 16 14 15 13 13 13 10 11 14 16 19 19 18 16 16 16 16 16 17 17 18 18 19 19 20 24 24 21 20 19 18 17 17 15 13 12
11 11 9 5 6 9 10 14 18 19 19 17 14 13 16 18 16 14 14 14 15 14 11 12 16 17 19 20 19 17 16 16 17 16 16 19 21 20 20 21 22 25 25 22 20 18 17 16 16 14 12 12
12 10 10 7 7 10 8 18 21 20 19 18 16 14 15 16 15 15 15 15 15 14 13 15 18 18 18 21 20 17 16 16 16 15 18 21 20 18 20 22 24 25 24 23 21 18 16 16 16 14 12 11
15 11 9 9 7 8 8 14 17 19 23 23 22 20 19 18 17 17 16 14 14 15 16 18 20 19 18 20 19 18 18 18 18 19 21 20 17 17 21 24 26 25 24 23 22 20 18 18 17 14 12 11
17 15 11 10 9 7 6 9 13 17 25 27 27 27 23 21 20 18 17 17 17 17 18 20 20 20 19 19 19 21 22 21 21 22 20 16 16 18 22 25 28 27 25 24 23 22 19 18 18 16 14 13
16 16 15 13 12 11 9 9 12 16 19 23 28 31 29 27 24 20 20 20 18 19 20 20 20 19 19 19 20 23 23 22 21 21 19 16 16 18 23 25 27 28 27 26 24 23 21 19 19 17 16 15
17 16 15 16 15 15 14 12 12 15 16 16 21 29 32 29 24 21 21 20 19 21 22 22 21 20 20 19 21 24 23 22 21 19 18 16 15 18 24 26 27 28 28 27 25 24 22 21 19 18 17 16
17 16 15 16 17 18 18 16 12 14 15 14 17 23 31 30 25 24 22 21 23 24 23 24 24 23 23 21 22 24 22 20 20 18 17 16 15 18 24 27 28 28 27 26 25 24 23 22 20 20 19 17
18 17 16 16 16 18 20 18 12 12 14 11 17 20 28 32 28 26 23 24 26 26 25 25 26 26 25 23 21 23 22 20 19 19 17 16 16 19 25 27 28 28 27 26 25 25 24 23 21 20 19 18
19 18 17 16 15 16 17 17 14 10 10 9 14 19 26 33 33 30 26 26 29 28 27 27 27 28 28 26 23 22 22 21 20 20 18 17 16 19 25 28 28 28 27 27 26 26 25 23 22 20 20 19
20 19 18 17 16 15 15 16 13 10 8 8 10 14 21 28 31 33 30 28 30 31 31 29 28 28 28 27 26 24 24 22 21 21 19 19 17 18 23 27 27 27 27 27 26 26 25 24 22 21 20 19
21 19 18 18 17 16 15 14 12 10 10 11 11 12 15 20 25 27 28 30 33 33 31 29 29 29 28 28 28 27 25 24 24 23 21 21 19 18 21 25 25 25 26 26 26 26 25 24 23 22 22 21
24 22 20 20 18 17 16 14 12 10 10 10 11 13 14 18 22 23 24 27 31 33 32 31 31 31 31 31 31 30 28 26 26 26 24 23 22 20 21 24 25 25 25 26 26 26 26 25 24 24 23 23
27 25 24 23 22 21 18 15 13 12 10 10 8 10 12 15 20 23 23 23 25 30 34 35 34 33 33 34 34 33 32 30 29 29 28 26 25 23 23 24 25 25 27 27 27 28 27 27 26 26 25 25
32 29 28 27 25 25 23 19 16 14 14 12 10 8 8 10 14 19 22 24 24 25 28 32 34 37 36 35 35 35 35 34 34 33 31 30 28 26 25 25 25 25 27 29 29 29 28 28 28 28 28 28
34 33 32 30 28 27 26 25 22 20 18 15 13 12 10 7 7 11 16 22 24 24 24 26 29 33 36 37 37 37 37 37 36 35 34 32 31 29 28 26 25 24 25 28 29 29 28 28 28 29 29 29
33 32 32 32 31 29 28 29 29 26 22 19 18 15 14 14 11 7 8 14 20 23 24 24 24 25 30 36 37 36 38 38 37 36 35 34 33 32 30 28 26 24 23 25 26 28 28 28 28 29 30 30
34 32 31 31 31 31 30 30 31 30 27 24 22 20 18 17 16 14 11 9 12 17 20 23 25 24 24 28 33 35 37 39 39 38 35 35 34 33 31 29 27 25 23 23 23 24 26 27 28 29 30 31
35 34 33 33 32 32 31 31 30 30 30 29 26 25 23 21 19 18 16 14 10 10 12 15 20 24 23 23 27 31 35 38 39 38 36 34 33 32 31 30 29 27 25 24 23 23 24 26 27 28 30 31
36 36 35 34 34 33 31 30 29 29 29 30 29 28 26 24 23 21 19 18 16 13 10 9 11 17 21 22 22 24 29 33 36 36 36 35 33 31 31 31 31 29 28 27 26 25 25 25 26 27 29 31
34 34 33 32 31 31 29 28 28 28 29 28 28 28 27 26 25 24 23 23 21 18 16 12 11 11 14 17 19 21 23 26 30 32 35 36 35 33 32 32 33 32 31 30 29 28 26 26 27 28 29 30
31 30 30 29 29 28 27 26 26 26 26 26 27 27 27 26 25 25 24 24 24 22 20 17 14 11 11 12 14 17 19 22 25 28 32 34 36 36 35 34 34 34 32 31 31 28 27 27 26 28 30 31
29 28 27 27 26 26 25 24 23 22 23 24 25 26 26 26 25 24 23 22 22 21 20 18 17 14 12 11 12 13 15 18 20 22 25 28 32 35 36 36 36 35 34 33 30 26 25 24 22 24 27 28
28 27 26 26 25 26 25 24 24 24 25 25 25 26 26 26 24 23 22 21 21 20 19 18 17 17 15 12 11 11 12 14 16 18 19 20 25 30 34 36 36 36 35 34 32 28 25 21 19 22 25 24
28 28 28 27 27 28 29 29 28 28 28 27 26 25 24 24 24 23 22 21 20 19 19 18 18 17 17 15 13 11 10 10 12 14 16 16 18 22 28 32 34 35 35 35 34 33 32 28 24 25 25 22
29 29 29 29 28 29 29 29 30 29 27 26 26 25 23 22 22 22 22 21 20 19 19 18 18 18 17 17 15 14 12 11 9 10 12 14 15 17 20 25 30 33 34 35 36 35 35 34 33 31 29 26
Wind_Direction
315 321 319 316 315 317 306 283 269 265 254 230 212 194 181 182 182 178 175 176 187 204 211 221 226 218 208 210 212 213 217 219 219 212 206 214 217 218 224 221 217 210 204 209 212 212 214 212 212 222 231 232
318 326 328 330 332 335 330 301 264 249 228 204 186 177 174 171 171 174 193 233 252 245 236 232 227 211 202 207 208 213 221 227 232 221 207 218 224 223 224 221 217 210 207 211 211 212 215 215 217 227 239 240
325 336 345 339 333 333 342 344 274 197 177 174 166 162 163 165 183 224 255 264 255 240 234 228 223 205 199 208 207 209 213 220 230 222 212 223 226 223 223 221 216 207 206 210 210 211 214 221 225 229 241 239
335 349 358 334 321 326 335 354 334 182 162 160 160 165 171 192 250 274 262 254 244 241 245 235 221 209 205 210 210 211 213 218 226 221 222 230 226 222 221 217 215 206 201 205 209 214 219 230 232 231 236 225
348 358 9 335 307 312 317 316 252 213 207 201 206 234 251 252 274 281 261 246 240 244 251 241 225 214 210 213 216 217 220 223 226 225 228 232 227 224 222 216 212 203 199 204 210 217 222 229 229 224 218 204
358 357 7 350 308 288 286 290 263 215 204 208 215 234 248 255 263 260 250 236 227 230 232 226 222 219 217 217 216 216 220 217 214 218 221 225 225 222 218 211 207 203 199 203 210 217 219 221 221 213 202 194
347 355 355 349 313 288 234 234 253 235 214 219 230 241 242 245 247 237 231 218 212 219 215 207 211 219 220 214 211 212 214 209 204 207 212 222 224 216 212 206 203 203 201 202 207 212 215 215 213 205 198 196
321 339 351 339 320 328 275 222 228 229 229 244 252 255 249 236 227 222 217 207 209 216 208 194 198 212 217 209 210 209 209 209 201 201 211 221 222 209 207 205 201 202 199 201 204 208 212 213 214 211 206 201
309 311 332 336 322 339 316 250 243 243 245 254 255 254 254 244 228 219 212 210 216 215 205 193 192 202 205 201 203 202 205 204 193 202 214 217 215 206 204 202 200 202 200 202 206 210 214 213 219 221 216 211
307 302 306 319 315 321 324 292 295 280 253 251 261 262 258 246 229 217 213 213 214 209 202 196 194 198 200 201 201 201 208 203 192 204 217 216 214 206 200 199 200 203 203 207 210 214 217 217 222 224 220 215
307 300 294 293 298 304 309 307 319 311 271 253 256 259 260 249 228 220 219 214 210 208 204 200 201 202 206 214 213 210 211 209 205 211 218 220 219 207 198 198 201 204 206 209 212 216 219 221 224 226 222 214
309 303 294 285 285 291 299 302 311 316 299 278 263 253 253 245 225 225 229 219 211 208 205 205 207 207 210 219 222 219 214 214 218 221 226 229 227 213 198 198 203 206 209 212 213 217 220 221 224 224 223 218
316 310 301 289 286 288 291 294 304 316 310 306 299 262 238 230 221 225 232 225 216 210 208 208 209 211 213 220 227 226 219 216 221 225 229 232 236 224 203 199 204 206 209 212 214 217 219 221 222 221 221 220
328 322 314 306 300 295 292 287 288 318 323 314 314 281 235 222 219 221 228 228 221 215 212 211 212 214 215 221 230 233 225 217 219 222 224 226 236 231 212 204 206 207 210 212 214 216 218 221 223 222 220 219
341 336 332 328 320 310 303 294 277 291 321 315 306 281 236 222 219 219 225 226 224 222 219 216 216 216 217 221 228 236 233 224 220 219 222 224 231 233 219 211 210 211 212 215 217 217 218 220 222 223 221 217
352 349 346 341 335 328 320 308 287 271 282 286 281 262 236 227 221 218 224 228 228 226 223 221 221 221 222 224 229 235 238 236 230 223 224 223 225 229 221 215 216 217 218 219 221 220 220 220 221 223 221 218
5 0 358 355 350 344 334 321 305 282 272 270 264 256 247 239 231 224 224 228 229 229 230 229 227 227 227 229 232 236 239 241 239 232 228 226 225 224 219 218 221 224 225 225 225 224 224 223 223 223 223 220
12 8 9 10 5 357 348 338 327 311 292 280 268 261 255 244 238 234 229 227 225 227 232 233 231 232 230 230 232 235 238 240 242 240 233 231 229 225 222 222 225 229 231 231 231 230 229 229 228 227 226 223
20 14 13 13 13 11 3 355 349 339 325 315 300 273 257 247 241 239 236 229 224 224 227 229 231 235 235 233 233 234 237 238 241 242 238 235 233 230 227 227 229 232 234 235 234 234 234 233 233 232 231 227
27 23 19 15 13 13 10 7 5 4 356 343 336 316 278 254 243 242 240 233 230 229 228 227 229 233 236 238 238 236 236 238 239 240 240 239 237 235 234 235 237 239 238 237 236 237 237 236 236 236 235 233
26 25 25 23 17 12 9 9 8 8 7 359 353 346 336 320 271 249 245 240 238 237 235 234 234 234 234 239 242 239 237 238 239 241 241 241 242 241 239 240 244 246 245 240 239 240 240 240 240 239 238 236
20 20 23 25 23 18 12 9 8 5 1 1 1 356 349 348 342 313 270 250 244 244 244 242 244 242 237 239 243 242 240 240 241 242 243 245 245 245 243 243 244 247 247 244 243 242 243 243 243 242 241 239
12 13 15 17 19 19 17 12 10 7 4 2 360 356 353 350 349 349 339 304 262 251 249 245 244 246 245 245 246 244 242 242 243 243 244 246 247 248 248 248 246 247 247 246 245 246 246 246 245 243 242 241
5 5 7 9 9 12 14 14 12 11 11 9 5 0 355 349 345 347 349 346 323 281 262 253 246 242 242 246 250 250 246 245 246 246 245 247 249 251 251 250 249 250 250 248 247 247 248 248 248 246 243 242
1 1 2 3 3 5 6 8 10 12 12 13 12 8 3 357 349 343 342 346 346 334 312 289 267 249 240 239 245 252 252 250 249 247 246 246 248 251 251 249 248 248 249 249 247 247 248 249 248 248 247 245
360 0 0 359 360 1 0 1 5 8 10 11 11 10 8 6 1 353 346 343 344 344 338 327 310 282 258 245 240 243 248 252 253 251 248 246 245 246 247 248 249 248 246 245 246 247 249 249 247 246 247 247
359 359 357 355 355 356 355 356 358 1 5 7 8 8 7 6 6 3 355 349 345 344 341 337 331 318 293 272 257 247 244 246 250 253 253 250 248 246 244 246 249 251 249 245 244 244 247 252 251 249 247 245
360 357 353 351 351 351 352 351 350 351 354 0 4 5 4 5 5 3 360 356 352 348 343 335 332 332 324 304 285 273 261 253 250 251 254 255 253 249 246 245 247 250 251 250 247 241 241 246 249 250 247 246
358 356 352 348 345 344 346 347 345 344 347 353 358 0 2 2 1 1 0 358 355 352 349 340 332 331 332 328 311 294 283 273 264 257 255 257 256 252 249 247 247 248 248 251 251 247 242 238 238 247 249 247
352 354 354 353 350 347 346 348 350 350 349 349 352 356 359 359 358 358 359 359 357 354 352 348 341 334 330 330 326 315 303 289 275 266 260 259 258 256 253 250 248 248 247 247 249 249 249 247 247 255 257 251
348 349 352 355 356 355 352 350 352 353 351 348 348 349 351 354 356 357 358 359 358 357 355 351 346 341 335 331 328 324 317 306 292 277 265 260 259 258 258 256 253 251 249 247 247 247 248 251 253 258 259 254